| time (UTC) | temp C | wind direction | speed KPH | gust KPH | rain 1hr cm | rain 24hr cm | rain mn cm | humidity % | barometer mb |
| 20260906101554 | 22 | 46 | 9.7 | 17.7 | 0.00 | 0.00 | 0.00 | 93 | 1015.0 |
| 20260906100052 | 22 | 21 | 8.0 | 14.5 | 0.00 | 0.00 | 0.00 | 94 | 1014.9 |
| 20260906094558 | 22 | 16 | 9.7 | 14.5 | 0.00 | 0.00 | 0.00 | 95 | 1014.7 |
| 20260906093058 | 22 | 15 | 4.8 | 6.4 | 0.00 | 0.00 | 0.00 | 94 | 1014.6 |
| 20260906091555 | 22 | 22 | 4.8 | 8.0 | 0.00 | 0.00 | 0.00 | 94 | 1014.6 |
| 20260906090054 | 22 | 35 | 6.4 | 14.5 | 0.00 | 0.00 | 0.00 | 94 | 1014.5 |
| 20260906084602 | 22 | 24 | 8.0 | 12.9 | 0.00 | 0.00 | 0.00 | 95 | 1014.5 |
| 20260906083054 | 22 | 339 | 6.4 | 12.9 | 0.00 | 0.00 | 0.00 | 94 | 1014.4 |
| 20260906081552 | 22 | 360 | 8.0 | 12.9 | 0.00 | 0.00 | 0.00 | 95 | 1014.3 |
| 20260906080053 | 22 | 340 | 6.4 | 9.7 | 0.00 | 0.00 | 0.00 | 95 | 1014.3 |
| 20260906074549 | 22 | 360 | 6.4 | 9.7 | 0.00 | 0.00 | 0.00 | 94 | 1014.2 |
| 20260906073059 | 22 | 328 | 3.2 | 6.4 | 0.00 | 0.00 | 0.00 | 93 | 1014.3 |
| 20260906071557 | 22 | 346 | 6.4 | 9.7 | 0.00 | 0.00 | 0.00 | 93 | 1014.2 |
| 20260906064552 | 22 | 331 | 8.0 | 14.5 | 0.00 | 0.00 | 0.00 | 92 | 1014.3 |
| 20260906063103 | 22 | 348 | 8.0 | 12.9 | 0.00 | 0.00 | 0.00 | 92 | 1014.4 |
| 20260906061626 | 23 | 13 | 9.7 | 12.9 | 0.00 | 0.00 | 0.00 | 91 | 1014.5 |
| 20260906060114 | 23 | 331 | 4.8 | 8.0 | 0.00 | 0.00 | 0.00 | 90 | 1014.6 |
| 20260906054557 | 23 | 331 | 4.8 | 9.7 | 0.00 | 0.00 | 0.00 | 90 | 1014.5 |
| 20260906053059 | 24 | 342 | 6.4 | 8.0 | 0.00 | 0.00 | 0.00 | 89 | 1014.6 |
| 20260906051605 | 24 | 341 | 6.4 | 9.7 | 0.00 | 0.00 | 0.00 | 88 | 1014.7 |
| 20260906050056 | 25 | 331 | 6.4 | 14.5 | 0.00 | 0.00 | 0.00 | 88 | 1014.5 |
| 20260906044552 | 25 | 348 | 8.0 | 14.5 | 0.00 | 0.00 | 0.00 | 87 | 1014.2 |
| 20260906043102 | 26 | 339 | 8.0 | 16.1 | 0.00 | 0.00 | 0.00 | 87 | 1014.1 |
| 20260906041553 | 26 | 355 | 4.8 | 8.0 | 0.00 | 0.00 | 0.00 | 87 | 1014.1 |
| 20260906040056 | 26 | 352 | 6.4 | 11.3 | 0.00 | 0.00 | 0.00 | 86 | 1014.1 |
| 20260906034601 | 26 | 355 | 8.0 | 16.1 | 0.00 | 0.00 | 0.00 | 86 | 1014.0 |
| 20260906033100 | 27 | 340 | 9.7 | 17.7 | 0.00 | 0.00 | 0.00 | 84 | 1013.8 |
| 20260906031553 | 27 | 351 | 16.1 | 22.5 | 0.00 | 0.00 | 0.00 | 83 | 1013.7 |
| 20260906030054 | 27 | 13 | 16.1 | 22.5 | 0.00 | 0.00 | 0.00 | 82 | 1013.7 |
| 20260906024601 | 27 | 5 | 14.5 | 19.3 | 0.00 | 0.00 | 0.00 | 82 | 1013.4 |
| 20260906023057 | 28 | 86 | 12.9 | 20.9 | 0.00 | 0.00 | 0.00 | 82 | 1013.6 |
| 20260906021554 | 27 | 50 | 12.9 | 20.9 | 0.00 | 0.00 | 0.00 | 82 | 1013.5 |
| 20260906014557 | 28 | 82 | 8.0 | 14.5 | 0.00 | 0.00 | 0.00 | 77 | 1012.9 |
| 20260906013053 | 28 | 73 | 3.2 | 8.0 | 0.00 | 0.00 | 0.00 | 73 | 1012.5 |
| 20260906011559 | 29 | 23 | 11.3 | 29.0 | 0.00 | 0.00 | 0.00 | 71 | 1012.5 |
| 20260906004557 | 30 | 36 | 1.6 | 3.2 | 0.00 | 0.00 | 0.00 | 72 | 1012.3 |
| 20260906003057 | 31 | 0 | 0.0 | 3.2 | 0.00 | 0.00 | 0.00 | 70 | 1012.2 |
| 20260906001554 | 31 | 314 | 0.0 | 3.2 | 0.00 | 0.00 | 0.00 | 69 | 1012.3 |
| 20260906000050 | 32 | 312 | 1.6 | 6.4 | 0.00 | 0.00 | 0.00 | 68 | 1012.6 |
| 20260905234557 | 32 | 5 | 6.4 | 14.5 | 0.00 | 0.00 | 0.00 | 66 | 1012.8 |
| 20260905233102 | 32 | 41 | 14.5 | 20.9 | 0.00 | 0.00 | 0.00 | 64 | 1012.7 |
| 20260905231554 | 33 | 38 | 4.8 | 20.9 | 0.00 | 0.00 | 0.00 | 64 | 1012.4 |
| 20260905230051 | 33 | 352 | 14.5 | 20.9 | 0.00 | 0.00 | 0.00 | 61 | 1012.3 |
| 20260905224554 | 34 | 17 | 6.4 | 25.7 | 0.00 | 0.00 | 0.00 | 58 | 1012.1 |
| 20260905223055 | 34 | 352 | 16.1 | 22.5 | 0.00 | 0.00 | 0.00 | 57 | 1012.2 |
| 20260905221554 | 35 | 329 | 17.7 | 29.0 | 0.00 | 0.00 | 0.00 | 56 | 1012.2 |
| 20260905220059 | 35 | 5 | 16.1 | 29.0 | 0.00 | 0.00 | 0.00 | 56 | 1011.9 |
| 20260905214604 | 35 | 11 | 20.9 | 35.4 | 0.00 | 0.00 | 0.00 | 55 | 1012.1 |
| 20260905213113 | 36 | 288 | 17.7 | 25.7 | 0.00 | 0.00 | 0.00 | 51 | 1012.1 |
| 20260905211607 | 36 | 345 | 17.7 | 32.2 | 0.00 | 0.00 | 0.00 | 51 | 1012.0 |
| 20260905210111 | 36 | 317 | 9.7 | 27.4 | 0.00 | 0.00 | 0.00 | 51 | 1012.2 |
| 20260905204559 | 36 | 294 | 14.5 | 25.7 | 0.00 | 0.00 | 0.00 | 50 | 1012.4 |
| 20260905203106 | 36 | 291 | 19.3 | 38.6 | 0.00 | 0.00 | 0.00 | 52 | 1012.7 |
| 20260905201556 | 36 | 274 | 19.3 | 29.0 | 0.00 | 0.00 | 0.00 | 51 | 1012.8 |
| 20260905200104 | 36 | 321 | 16.1 | 25.7 | 0.00 | 0.00 | 0.00 | 52 | 1012.7 |
| 20260905194556 | 36 | 274 | 11.3 | 27.4 | 0.00 | 0.00 | 0.00 | 51 | 1012.7 |
| 20260905193052 | 36 | 283 | 14.5 | 22.5 | 0.00 | 0.00 | 0.00 | 51 | 1012.7 |
| 20260905191551 | 36 | 292 | 9.7 | 33.8 | 0.00 | 0.00 | 0.00 | 51 | 1013.1 |
| 20260905184604 | 34 | 304 | 17.7 | 32.2 | 0.00 | 0.00 | 0.00 | 58 | 1013.5 |
| 20260905183109 | 34 | 151 | 8.0 | 17.7 | 0.00 | 0.00 | 0.00 | 59 | 1013.9 |
| 20260905181558 | 33 | 149 | 8.0 | 16.1 | 0.00 | 0.00 | 0.00 | 61 | 1013.9 |
| 20260905174555 | 32 | 151 | 9.7 | 17.7 | 0.00 | 0.00 | 0.00 | 63 | 1014.2 |
| 20260905173057 | 32 | 156 | 1.6 | 14.5 | 0.00 | 0.00 | 0.00 | 66 | 1014.4 |
| 20260905171554 | 31 | 113 | 8.0 | 16.1 | 0.00 | 0.00 | 0.00 | 65 | 1014.6 |
| 20260905164558 | 31 | 146 | 12.9 | 19.3 | 0.00 | 0.00 | 0.00 | 67 | 1015.1 |
| 20260905163108 | 30 | 123 | 12.9 | 19.3 | 0.00 | 0.00 | 0.00 | 69 | 1015.1 |
| 20260905161600 | 30 | 176 | 11.3 | 19.3 | 0.00 | 0.00 | 0.00 | 70 | 1015.0 |
| 20260905160100 | 30 | 163 | 16.1 | 22.5 | 0.00 | 0.00 | 0.00 | 71 | 1015.3 |
| 20260905154554 | 29 | 94 | 14.5 | 22.5 | 0.00 | 0.00 | 0.00 | 71 | 1015.5 |
| 20260905153111 | 29 | 138 | 16.1 | 20.9 | 0.00 | 0.00 | 0.00 | 72 | 1015.3 |
| 20260905151608 | 28 | 71 | 17.7 | 25.7 | 0.00 | 0.00 | 0.00 | 75 | 1015.6 |
| 20260905150058 | 28 | 98 | 17.7 | 25.7 | 0.00 | 0.00 | 0.00 | 77 | 1015.4 |
| 20260905144554 | 28 | 107 | 12.9 | 22.5 | 0.00 | 0.00 | 0.00 | 78 | 1015.3 |
| 20260905143105 | 28 | 104 | 19.3 | 30.6 | 0.00 | 0.00 | 0.00 | 79 | 1015.4 |
| 20260905141621 | 28 | 94 | 22.5 | 32.2 | 0.00 | 0.00 | 0.00 | 78 | 1015.2 |
| 20260905140106 | 28 | 80 | 14.5 | 24.1 | 0.00 | 0.00 | 0.00 | 78 | 1015.4 |
| 20260905134552 | 27 | 100 | 4.8 | 17.7 | 0.00 | 0.00 | 0.00 | 82 | 1015.5 |
| 20260905133059 | 26 | 80 | 14.5 | 24.1 | 0.00 | 0.00 | 0.00 | 84 | 1015.5 |
| 20260905131616 | 26 | 151 | 1.6 | 4.8 | 0.00 | 0.00 | 0.00 | 89 | 1014.9 |
| 20260905130057 | 25 | 49 | 1.6 | 4.8 | 0.00 | 0.00 | 0.00 | 93 | 1015.1 |
| 20260905124550 | 25 | 67 | 1.6 | 6.4 | 0.00 | 0.00 | 0.00 | 94 | 1014.9 |
| 20260905123106 | 24 | 0 | 0.0 | 3.2 | 0.00 | 0.00 | 0.00 | 95 | 1015.0 |
| 20260905121555 | 23 | 165 | 1.6 | 3.2 | 0.00 | 0.00 | 0.00 | 96 | 1014.7 |
| 20260905120105 | 23 | 0 | 0.0 | 4.8 | 0.00 | 0.00 | 0.00 | 96 | 1014.9 |
| 20260905114558 | 22 | 10 | 1.6 | 3.2 | 0.00 | 0.00 | 0.00 | 96 | 1014.6 |
| 20260905113054 | 22 | 0 | 0.0 | 3.2 | 0.00 | 0.00 | 0.00 | 95 | 1014.5 |
| 20260905111550 | 23 | 0 | 0.0 | 3.2 | 0.00 | 0.00 | 0.00 | 96 | 1014.5 |
| 20260905110106 | 23 | 15 | 1.6 | 4.8 | 0.00 | 0.00 | 0.00 | 95 | 1014.2 |
| 20260905104558 | 23 | 134 | 1.6 | 4.8 | 0.00 | 0.00 | 0.00 | 95 | 1014.1 |
| 20260905103053 | 23 | 0 | 0.0 | 3.2 | 0.00 | 0.00 | 0.00 | 95 | 1014.3 |